Starlink 36660

operational
NORAD ID: 67848 Int'l Des: 2026-033 Owner: SPXS Country: US Constellation: starlink
LEOCIRCULAR

Über Starlink 36660

Beschreibung wird geladen...

Live-Position

3D-Globus wird geladen...

Nächste Überflüge

Höhenverlauf

Altitude vs Time

uPlot chart will show altitude changes over time

Zweizeiliger Elementsatz

1 67848U 26033AD 26093.91668981 .00040006 00000-0 14576-2 0 9990
2 67848 43.0008 124.8282 0001357 263.5675 300.6909 15.27530995 6028
Epoch: 3. Apr. 2026 • Age: 8 hours

Aktueller Status

Höhe 486.3 km
Geschwindigkeit 7.62 km/s
Subsatellitenpunkt -17.39°S, 42.12°E
Startdatum 16. Feb. 2026
Alter 0.1 years
Typ internet

Technische Details

Klassifizierung Payload
Masse 575.00 kg
Trockenmasse 530.00 kg
Gesamtmasse 575.00 kg
Länge 0.30 m
Durchmesser 4.10 m
Spannweite 29.00 m
Form Box + pan
Hersteller SPXS
Bus-Typ Starlink V2MO
Phasenstatus In Orbit
Besitzer/Staat SPXS/US

Große Konstellationen

Loading constellations...